Simultaneous Nadir Overpasses (SNOs) Predictions

Prediction of SNOs between NOAA-19 and TERRA Satellite Orbit:

Table of predicted SNOs for the next 14.0 days since TLE Epoch: 11/20/2016
Index Date (NOAA-19) Time (NOAA-19) Lat,Lon (NOAA-19) SZA (NOAA-19 ) Date (TERRA) Time (TERRA) Lat,Lon (TERRA) SZA (TERRA ) Distance(km) Time Diff (sec)
1 11/22/2016 07:45:31 74.54, 72.42 95.03 11/22/2016 07:45:34 74.54, 72.46 95.03 1.12 3
2 11/22/2016 08:36:18 -74.14,-119.20 85.30 11/22/2016 08:35:08 -74.21,-120.70 85.34 46.01 70
3 11/24/2016 12:28:36 74.97, 0.50 95.83 11/24/2016 12:29:45 74.89, 2.27 95.86 51.82 69
4 11/24/2016 13:19:23 -74.55, 168.99 84.52 11/24/2016 13:19:19 -74.56, 169.08 84.51 2.82 4
5 11/26/2016 18:02:23 -74.73, 97.81 83.96 11/26/2016 18:03:35 -74.66, 98.24 83.99 14.64 72
6 11/26/2016 18:53:24 74.52, -94.36 95.87 11/26/2016 18:53:03 74.53, -94.43 95.88 2.80 21
7 11/28/2016 23:36:22 74.63,-165.34 96.34 11/28/2016 23:37:19 74.62,-165.29 96.35 1.66 57
8 11/29/2016 00:27:17 -74.54, 2.17 83.73 11/29/2016 00:26:48 -74.55, 2.17 83.73 1.05 29
9 12/01/2016 05:10:15 -74.63, -68.76 83.31 12/01/2016 05:11:04 -74.63, -68.70 83.30 1.85 49
10 12/01/2016 06:01:18 74.56, 98.66 96.64 12/01/2016 06:00:31 74.55, 98.75 96.63 2.55 47
11 12/03/2016 10:44:15 74.63, 27.78 97.01 12/03/2016 10:44:47 74.63, 27.86 97.02 2.28 32




NCC Satellite Simultaneous Nadir Overpasses (SNOs) Prediction Service
